Weather History for Baraboo, WI

Change the Weather History Date:

Wednesday, October 2, 2013

  Actual Average Record
Temperature  
Mean Temperature 60 °F -  
Max Temperature 75 °F 67 °F 86 °F (1953)
Min Temperature 44 °F 39 °F 19 °F (1974)
Degree Days  
Heating Degree Days 6    
Growing Degree Days 10 (Base 50)    
Moisture  
Dew Point 41 °F    
Average Humidity 58    
Maximum Humidity 95    
Minimum Humidity 22    
Precipitation  
Precipitation 0.04 in - - ()
Sea Level Pressure  
Sea Level Pressure 30.04 in    
Wind  
Wind Speed 2 mph (SE)    
Max Wind Speed 10 mph    
Max Gust Speed -    
Visibility 10 miles    
Events      
Averages and records for this station are not official NWS values.
T = Trace of Precipitation, MM = Missing Value Source: NWS Daily Summary

Daily Weather History Graph

Daily Weather History Graph

Search for Another Location

Airport:

Trip Planner

Search our weather history database for the weather conditions in past years. The results will help you decide how hot, cold, wet, or windy it might be!

Date:

Astronomy

Oct. 02, 2013 Rise Set
Actual Time 6:58 AM CDT 6:37 PM CDT
Civil Twilight 6:29 AM CDT 7:06 PM CDT
Nautical Twilight 5:56 AM CDT 7:39 PM CDT
Astronomical Twilight 5:22 AM CDT 8:12 PM CDT
Moon 4:27 AM CDT (10/2) 5:16 PM CDT (10/2)
Length of Visible Light 12h 36m
Length of Day
11h 39m
Waning Crescent, 6% of the Moon is Illuminated
Oct 2
Waning Crescent
Oct 4
New
Oct 11
First Quarter
Oct 18
Full
Oct 26
Last Quarter

Hourly Weather History & Observations

Time (CDT) Temp. Windchill Dew Point Humidity Pressure Visibility Wind Dir Wind Speed Gust Speed Precip Events Conditions
12:15 AM 52.7 °F - 50.0 °F 91% 29.99 in 10.0 mi Calm Calm - N/A   Clear
12:35 AM 50.9 °F - 48.2 °F 90% 30.00 in 10.0 mi Calm Calm - N/A   Clear
12:55 AM 50.7 °F - 46.9 °F 87% 30.00 in 10.0 mi Calm Calm - N/A   Clear
1:15 AM 50.9 °F - 47.5 °F 88% 30.00 in 10.0 mi Calm Calm - N/A   Clear
1:35 AM 50.2 °F - 47.5 °F 90% 30.01 in 10.0 mi Calm Calm - N/A   Clear
1:55 AM 48.7 °F - 46.6 °F 92% 30.02 in 10.0 mi Calm Calm - N/A   Clear
2:15 AM 50.2 °F - 48.4 °F 94% 30.02 in 10.0 mi Calm Calm - N/A   Clear
2:35 AM 49.8 °F - 48.0 °F 94% 30.02 in 7.0 mi Calm Calm - N/A   Clear
2:55 AM 48.2 °F - 46.2 °F 93% 30.03 in 10.0 mi Calm Calm - N/A   Clear
3:15 AM 48.4 °F - 46.4 °F 93% 30.03 in 10.0 mi Calm Calm - N/A   Clear
3:35 AM 47.3 °F - 45.7 °F 94% 30.03 in 10.0 mi Calm Calm - N/A   Clear
3:55 AM 47.5 °F - 46.2 °F 95% 30.04 in 10.0 mi Calm Calm - N/A   Clear
4:15 AM 46.8 °F - 45.5 °F 95% 30.05 in 10.0 mi Calm Calm - N/A   Clear
4:35 AM 46.8 °F - 45.3 °F 95% 30.05 in 10.0 mi Calm Calm - N/A   Clear
4:55 AM 46.2 °F - 44.6 °F 94% 30.06 in 10.0 mi Calm Calm - N/A   Clear
5:15 AM 46.6 °F - 45.1 °F 95% 30.06 in 10.0 mi South 3.5 mph - N/A   Clear
5:35 AM 46.6 °F - 45.1 °F 95% 30.07 in 10.0 mi Calm Calm - N/A   Clear
5:55 AM 45.9 °F - 44.6 °F 95% 30.07 in 10.0 mi Calm Calm - N/A   Clear
6:15 AM 46.2 °F 45.0 °F 44.8 °F 95% 30.08 in 10.0 mi South 3.5 mph - N/A   Clear
6:35 AM 46.9 °F - 45.1 °F 93% 30.08 in 10.0 mi Calm Calm - N/A   Clear
6:55 AM 45.7 °F - 43.7 °F 93% 30.09 in 10.0 mi Calm Calm - N/A   Clear
7:15 AM 44.8 °F - 43.2 °F 94% 30.09 in 10.0 mi Calm Calm - N/A   Clear
7:35 AM 46.0 °F - 44.4 °F 94% 30.10 in 10.0 mi Calm Calm - N/A   Clear
7:55 AM 47.5 °F - 45.7 °F 93% 30.10 in 10.0 mi Calm Calm - N/A   Clear
8:15 AM 49.6 °F - 47.1 °F 91% 30.10 in 10.0 mi Calm Calm - N/A   Clear
8:35 AM 52.3 °F - 48.9 °F 88% 30.11 in 10.0 mi Calm Calm - N/A   Clear
8:55 AM 55.4 °F - 47.8 °F 76% 30.11 in 10.0 mi Calm Calm - N/A   Clear
9:15 AM 57.6 °F - 49.3 °F 74% 30.12 in 10.0 mi Calm Calm - N/A   Clear
9:35 AM 60.8 °F - 48.7 °F 64% 30.12 in 10.0 mi Calm Calm - N/A   Clear
9:55 AM - - - N/A% - - North - - N/A   Unknown
10:15 AM 65.5 °F - 41.5 °F 42% 30.12 in 10.0 mi SE 3.5 mph - N/A   Clear
10:35 AM 67.3 °F - 39.6 °F 36% 30.12 in 10.0 mi East 5.8 mph - N/A   Clear
10:55 AM 68.7 °F - 37.0 °F 31% 30.12 in 10.0 mi SE 5.8 mph - N/A   Clear
11:35 AM 70.5 °F - 32.2 °F 24% 30.11 in 10.0 mi ESE 8.1 mph - N/A   Clear
11:55 AM 71.6 °F - 32.7 °F 24% 30.10 in 10.0 mi SSE 4.6 mph - N/A   Clear
12:15 PM 71.6 °F - 31.3 °F 23% 30.10 in 10.0 mi SE 8.1 mph - N/A   Clear
12:35 PM 72.1 °F - 32.9 °F 24% 30.10 in 10.0 mi SSE 6.9 mph - N/A   Clear
12:55 PM 71.4 °F - 35.6 °F 27% 30.09 in 10.0 mi SE 5.8 mph - N/A   Clear
1:15 PM 72.1 °F - 35.1 °F 26% 30.09 in 10.0 mi SSE 8.1 mph - N/A   Clear
1:35 PM 73.0 °F - 32.5 °F 23% 30.07 in 10.0 mi SSE 5.8 mph - N/A   Clear
1:55 PM 73.8 °F - 32.9 °F 22% 30.06 in 10.0 mi SE 3.5 mph - N/A   Clear
2:15 PM 74.3 °F - 33.6 °F 23% 30.05 in 10.0 mi SSE 6.9 mph - N/A   Unknown
2:35 PM 74.3 °F - 33.1 °F 22% 30.05 in 10.0 mi SE 5.8 mph - N/A   Clear
2:55 PM 74.7 °F - 33.1 °F 22% 30.04 in 10.0 mi South 3.5 mph - N/A   Clear
3:15 PM 74.8 °F - 33.3 °F 22% 30.04 in 10.0 mi SE 8.1 mph - N/A   Clear
3:35 PM 75.0 °F - 33.8 °F 22% 30.03 in 10.0 mi SE 4.6 mph - N/A   Clear
3:55 PM 75.2 °F - 34.2 °F 22% 30.02 in 10.0 mi SSE 4.6 mph - N/A   Clear
4:15 PM 74.8 °F - 34.9 °F 23% 30.02 in 10.0 mi South 8.1 mph - N/A   Clear
4:35 PM 74.8 °F - 36.0 °F 24% 30.00 in 10.0 mi SE 8.1 mph - N/A   Clear
4:55 PM 74.3 °F - 34.5 °F 23% 30.00 in 10.0 mi SE 9.2 mph - N/A   Clear
5:15 PM 73.6 °F - 34.0 °F 23% 30.00 in 10.0 mi SSE 8.1 mph - N/A   Clear
5:35 PM 73.0 °F - 34.9 °F 25% 29.99 in 10.0 mi SE 6.9 mph - N/A   Clear
5:55 PM 71.8 °F - 36.7 °F 28% 29.99 in 10.0 mi SE 4.6 mph - N/A   Clear
6:15 PM 69.4 °F - 38.3 °F 32% 29.99 in 10.0 mi Calm Calm - N/A   Clear
6:35 PM 64.9 °F - 41.5 °F 42% 29.99 in 10.0 mi East 4.6 mph - N/A   Scattered Clouds
6:55 PM 65.1 °F - 39.4 °F 39% 29.99 in 10.0 mi ESE 5.8 mph - N/A   Scattered Clouds
7:15 PM 63.1 °F - 41.9 °F 46% 29.99 in 10.0 mi ESE 5.8 mph - N/A   Scattered Clouds
7:35 PM 64.4 °F - 41.2 °F 43% 29.99 in 10.0 mi ESE 4.6 mph - N/A   Mostly Cloudy
7:55 PM 63.5 °F - 41.7 °F 45% 29.98 in 10.0 mi East 5.8 mph - N/A   Mostly Cloudy
8:15 PM 63.3 °F - 41.2 °F 44% 29.98 in 10.0 mi East 6.9 mph - N/A   Scattered Clouds
8:35 PM 63.1 °F - 41.2 °F 45% 29.98 in 10.0 mi East 5.8 mph - N/A   Clear
8:55 PM 61.7 °F - 41.9 °F 48% 29.98 in 10.0 mi Calm Calm - N/A   Clear
9:15 PM 60.1 °F - 42.8 °F 53% 29.97 in 10.0 mi Calm Calm - N/A   Clear
9:35 PM 58.1 °F - 43.0 °F 57% 29.97 in 10.0 mi Calm Calm - N/A   Clear
9:55 PM 61.9 °F - 42.1 °F 48% 29.96 in 10.0 mi SE 5.8 mph - N/A   Clear
10:15 PM 63.5 °F - 42.8 °F 47% 29.96 in 10.0 mi SE 6.9 mph - N/A   Clear
10:35 PM 63.1 °F - 43.2 °F 48% 29.96 in 10.0 mi SE 6.9 mph - N/A   Clear
10:55 PM 61.9 °F - 44.1 °F 52% 29.97 in 10.0 mi SE 5.8 mph - N/A   Clear
11:15 PM 61.0 °F - 44.6 °F 55% 29.96 in 10.0 mi SSE 5.8 mph - N/A   Clear
11:35 PM 61.7 °F - 44.8 °F 54% 29.96 in 10.0 mi SSE 8.1 mph - N/A   Clear
11:55 PM 61.2 °F - 44.6 °F 54% 29.95 in 10.0 mi SSE 10.4 mph - N/A   Clear